Tracking 27422 objects as of 30-May-2023
HD Live streaming from Space Station
objects crossing your sky now

GALAXY 9

Track GALAXY 9 now!
GALAXY 9 is classified as:


NORAD ID: 23877
Int'l Code: 1996-033A
Perigee: 35,960.7 km
Apogee: 36,038.6 km
Inclination: 10.3 °
Period: 1,446.6 minutes
Semi major axis: 42370 km
RCS: 8.797 m2 (large)
Launch date: May 24, 1996
Source: United States (US)
Launch site: AIR FORCE EASTERN TEST RANGE (AFETR)

Voice and vision communication; 24 C-band; North America, Caribbean.
Your satellite tracking list
Your tracking list is empty




NASA's NSSDC Master Catalog

Two Line Element Set (TLE):
1 23877U 96033A   23149.87255223  .00000027  00000-0  00000+0 0  9999
2 23877  10.2536  40.2906 0009200 111.9645  72.0410  0.99541768 98601
Source of the keplerian elements: AFSPC